#timestamp,LO_Frequency,Hit,StdDev 
1568887215.3,286046998.8,N
1568887235.2,286047001.1,N
1568887255.0,286046999.9,N
1568887255.9,286046999.9,N
1568887275.8,286047001.1,N
1568887295.6,286046999.6,N
1568887315.4,286046996.7,N
1568887335.3,286046996.1,N
1568887355.1,286046994.0,N
1568887375.8,286046994.8,N
1568887395.7,286046994.3,N
1568887415.5,286046988.7,Y
1568887435.4,286046991.3,P
1568887455.2,286046990.3,P
1568887475.0,286046990.6,N
1568887475.9,286046990.6,Y
1568887495.8,286047001.0,P
1568887515.6,286046996.7,N
1568887535.4,286046999.0,N
1568887555.3,286046995.5,N
1568887575.1,286046995.9,N
1568887595.9,286046996.4,N
1568887615.7,286046990.6,Y
1568887635.5,286046991.9,P
1568887655.4,286046991.0,P
1568887675.2,286046989.4,P
1568887695.1,286046989.8,Y
1568887696.0,286046989.8,P
1568887715.8,286046995.3,P
1568887735.6,286046997.6,N
1568887755.5,286046997.8,N
1568887775.3,286046998.0,N
1568887795.1,286046996.0,N
1568887815.9,286046998.4,N
1568887835.7,286046999.2,N
1568887855.6,286046999.6,N
1568887875.4,286046996.6,N
1568887895.2,286046999.0,N
1568887915.1,286046997.2,N
1568887916.0,286046997.2,N
1568887935.8,286046993.3,N
1568887955.7,286046992.2,N
1568887975.5,286046994.0,N
1568887995.3,286046992.1,N
1568888015.2,286046990.5,Y
1568888035.0,286046999.0,P
1568888035.9,286046999.0,N
1568888055.7,286046994.2,P
1568888075.6,286046992.5,Y
1568888095.4,286046993.3,P
1568888115.3,286046993.6,P
1568888135.1,286046993.2,P
1568888136.0,286046993.2,Y
1568888155.8,286046998.8,P
1568888175.7,286046997.1,N
1568888195.5,286046996.9,N
1568888215.4,286046995.6,N
1568888235.2,286046999.1,N
1568888255.0,286046995.3,N
1568888255.9,286046995.3,N
1568888275.8,286046996.1,N
1568888295.6,286046994.7,Y
1568888315.4,286046997.4,P
1568888335.3,286046998.0,P
1568888355.1,286046996.4,P
1568888375.9,286046993.5,Y
1568888395.7,286047000.8,P
1568888415.5,286046994.6,N
1568888435.4,286046991.7,P
1568888455.2,286046991.8,N
1568888475.0,286046991.9,N
1568888476.0,286046991.9,N
1568888495.8,286046991.6,N
1568888515.6,286046992.8,N
1568888535.5,286046998.1,N
1568888555.3,286046997.8,N
1568888575.1,286046998.9,N
1568888595.9,286046995.5,N
1568888615.7,286046993.5,N
1568888635.6,286046997.9,N
1568888655.4,286046995.8,N
1568888675.2,286046991.7,N
1568888695.1,286046990.7,Y
1568888696.0,286046990.7,P
1568888715.8,286046993.3,P
1568888735.6,286046995.8,N
1568888755.5,286046996.4,N
1568888775.3,286046993.4,Y
1568888795.2,286047000.2,P
1568888815.0,286047002.4,N
1568888815.9,286047002.4,N
1568888835.7,286047001.7,N
1568888855.6,286047002.6,N
1568888875.4,286047002.4,N
1568888895.3,286047004.1,N
1568888915.1,286047004.1,N
1568888916.0,286047004.1,N
1568888935.8,286047002.7,N
1568888955.7,286047007.0,N
1568888975.5,286047007.6,N
1568888995.4,286047003.6,N
1568889015.2,286047001.9,N
1568889035.0,286047003.6,N
1568889035.9,286047003.6,N
1568889055.8,286047001.6,N
1568889075.6,286047002.1,N
1568889095.4,286046998.5,N
1568889115.3,286047000.4,N
1568889135.1,286046998.4,N
1568889155.9,286047000.9,N
1568889175.7,286046998.2,N
1568889195.5,286046998.4,N
1568889215.4,286047005.8,N
1568889235.2,286047002.7,N
1568889255.0,286047003.8,N
1568889255.9,286047003.8,N
1568889275.8,286047003.2,N
1568889295.6,286047000.5,N
1568889315.5,286047005.2,N
1568889335.3,286047003.7,N
1568889355.1,286047002.4,N
1568889375.9,286047002.4,N
1568889395.7,286046999.5,N
1568889415.5,286047002.3,N
1568889435.4,286046997.1,N
1568889455.2,286046996.8,N
1568889475.1,286046997.8,N
1568889476.0,286046997.8,N
1568889495.8,286046995.7,N
1568889515.6,286046995.4,N
1568889535.5,286046995.8,N
1568889555.3,286046995.2,N
1568889575.1,286046999.8,N
1568889595.9,286046999.0,N
1568889615.7,286046999.1,N
1568889635.6,286046999.5,N
1568889655.4,286046995.3,N
1568889675.2,286046999.2,N
1568889695.1,286046998.8,N
1568889696.0,286046998.8,N
1568889715.8,286046997.5,N
1568889735.6,286046994.5,N
1568889755.5,286046993.4,N
1568889775.3,286046993.2,N
1568889795.2,286046994.4,N
1568889815.9,286046993.2,N
1568889835.7,286046992.4,N
1568889855.6,286046991.5,N
1568889875.4,286046990.9,N
1568889895.2,286046990.1,Y
1568889915.1,286046993.6,P
1568889916.0,286046993.6,P
1568889935.8,286046994.3,P
1568889955.7,286046991.0,Y
1568889975.5,286046994.6,P
1568889995.3,286046990.7,P
1568890015.2,286046990.8,P
1568890035.0,286046994.4,N
1568890035.9,286046994.4,Y
1568890055.8,286046999.2,P
1568890075.6,286046997.3,N
1568890095.4,286046994.4,N
1568890115.3,286046994.4,N
1568890135.1,286046993.4,N
1568890155.8,286046996.4,N
1568890175.7,286046995.4,N
1568890195.5,286046995.3,N
1568890215.4,286046997.0,N
1568890235.2,286046998.6,N
1568890255.0,286046999.0,N
1568890255.9,286046999.0,N
1568890275.8,286046997.3,N
1568890295.6,286046995.3,N
1568890315.5,286046991.8,Y
1568890335.3,286046995.9,P
1568890355.1,286046996.3,P
1568890375.9,286046995.8,P
1568890395.7,286046997.0,Y
1568890415.6,286047005.7,P
1568890435.4,286047002.8,N
1568890455.2,286047003.5,N
1568890475.1,286047006.5,N
1568890476.0,286047006.5,N
1568890495.8,286047007.7,N
1568890515.6,286047006.1,N
1568890535.5,286047006.8,N
1568890555.3,286047006.6,N
1568890575.2,286047010.4,Y
1568890595.9,286047008.6,P
1568890615.7,286047009.2,P
1568890635.6,286047006.5,P
1568890655.4,286047005.1,N
1568890675.2,286047005.5,Y
1568890695.1,286046995.7,P
1568890696.0,286046995.7,N
1568890715.8,286046993.6,N
1568890735.7,286046997.3,N
1568890755.5,286046996.6,N
1568890775.3,286046995.0,N
1568890795.2,286046995.2,N
